sim
Sign-in with your pilot id or email,
or register
Callsign
Passwort

Schedule Details

Flight Number: RYR3329
Departure: Paphos International Airport (LCPH) at 05:00
Arrival: Bratislava M. R. Stefanik Airport (LZIB) at 08:05
Route: Ryanair Passenger Schedule. Enter filed route here before submitting Pirep.

Weather Information
Getting current METAR information for LCPH 280330Z 01004KT 9999 SCT022 17/14 Q1015
Getting current METAR information for LZIB 280330Z 27005KT CAVOK 12/06 Q1025

Schedule Frequency

Route Map